Regional Weather Roundup
Issued by NWS

Home | Current Version | Previous Version | Text Only | Print | Product List | Glossary Off
Versions: 1 2 3 4 5 6 7 8 9 10 11 12 13 14 15 16 17 18 19 20 21 22 23 24 25 26 27 28 29 30 31 32 33 34 35 36 37 38 39 40 41 42 43 44 45 46 47 48 49 50

000
ASUS45 KTFX 240719
RWRMT
MONTANA HOURLY WEATHER ROUNDUP
NATIONAL WEATHER SERVICE GREAT FALLS MT
119 AM MDT THU JUL 24 2014

NOTE: "FAIR" INDICATES FEW OR NO CLOUDS BELOW 12000 FEET WITH NO
SIGNIFICANT WEATHER AND/OR OBSTRUCTIONS TO VISIBILITY.

* THESE STATIONS ARE NOT UNDER NWS QUALITY CONTROL. THEY DO NOT
   REPORT WEATHER SUCH AS PRECIPITATION OR FOG.

MTZ001>007-043-240800-
WEST OF THE DIVIDE
CITY           SKY/WX    TMP DP  RH WIND       PRES   REMARKS
KALISPELL      CLOUDY    64  54  70 NW5       29.97R
MISSOULA       PTCLDY    68  54  61 NW16G25   30.00R
BUTTE          CLEAR     55  46  72 SE6       30.03S
MULLAN PASS    CLOUDY    45  43  93 N/A       30.14S
* ESSEX        N/A       65  53  65 W4         N/A
* LINCOLN      N/A       55  54  96 E3         N/A
* LOOKOUT PASS N/A       52  46  80 N7         N/A
* POLSON       N/A       63  50  63 NW2G10     N/A
* RONAN APT    PTCLDY    68  54  61 N/A        N/A
* SEELEY LAKE  N/A       59  46  62 E1G9       N/A
* THOMP F APT  PTCLDY    68  30  24 N6         N/A
$$

MTZ008-052>055-240800-
SOUTHWEST MONTANA
CITY           SKY/WX    TMP DP  RH WIND       PRES   REMARKS
BOZEMAN        CLEAR     63  43  48 S8        29.92S
DILLON         CLEAR     63  36  37 S9        29.98R
W YELLOWSTONE  CLEAR     46  39  77 CALM      30.12F
* THREE FORKS  CLEAR     64  55  73 N/A        N/A
* BOULDER HILL N/A       58  45  62 N/A        N/A
* MONIDA PASS  N/A       59  28  31 NW1        N/A
* RAYNOLDS PAS N/A       58  40  51 S12        N/A
* WHITEHALL    N/A       62  50  65 E1G6       N/A
* WISE RIVER   N/A       55  49  80 SE3        N/A
$$

MTZ009>010-012-014-046-048-049-054-240800-
EAST SLOPES AND CENTRAL MONTANA
CITY           SKY/WX    TMP DP  RH WIND       PRES   REMARKS
CUT BANK       CLEAR     61  54  78 NW8       29.89R
GREAT FALLS    CLEAR     64  54  70 S7        29.87F
HELENA         CLEAR     61  54  78 NW5       29.90F
MALMSTROM AFB  PTCLDY    63  54  73 SW8       29.88F
* CONRAD       PTCLDY    61  57  87 SW5        N/A
* DEARBORN     N/A       63  54  73 SE3        N/A
* EAST GLACIER N/A       59  51  75 NW2        N/A
* MONARCH      N/A       59  47  65 S4         N/A
* PENDROY      N/A       63  45  52 SW4        N/A
* ROGERS PASS  N/A       56  48  75 NW6        N/A
* SAINT MARY   N/A       55  54  96 S3         N/A
* SWEET GRASS  N/A       63  62  97 N12        N/A
* WHITE SULPH  N/A       58  50  75 S1         N/A
$$

MTZ011-013-016-021-035-040-045-047-050-051-240800-
NORTH CENTRAL MONTANA
CITY           SKY/WX    TMP DP  RH WIND       PRES   REMARKS
HAVRE          MOCLDY    68  59  73 E13G20    29.82F
LEWISTOWN      PTCLDY    64  52  65 SE7       29.90F
* FORT BENTON  PTCLDY    66  57  73 CALM      29.83F
* CHESTER      N/A       65  59  81 NE2G8      N/A
* DENTON       N/A       65  52  63 W6         N/A
* GEYSER       N/A       62  48  60 S6         N/A
* JUDITH GAP   N/A       68  47  47 NW9        N/A
* LOMA         N/A       67  60  78 S4         N/A
$$

MTZ017>020-022>027-061-062-240800-
NORTHEAST MONTANA
CITY           SKY/WX    TMP DP  RH WIND       PRES   REMARKS
GLASGOW        CLOUDY    75  61  62 E22G30    29.82F
GLENDIVE       CLEAR     72  55  55 E8        29.90F
JORDAN         MOCLDY    75  63  66 E14       29.82F
SIDNEY         PTCLDY    72  55  55 SE9       29.93F
WOLF POINT     CLOUDY    75  61  62 E12       29.87F
* BEAVER HILL  N/A       70  55  59 SE27G37    N/A
* CIRCLE       N/A       73  62  69 NE4G9      N/A
* LINDSAY DVD  N/A       66  59  78 E12        N/A
* NAVAJO       N/A       68  63  84 E11G16     N/A
$$

MTZ028>042-056>058-240800-
SOUTHCENTRAL AND SOUTHEAST MONTANA
CITY           SKY/WX    TMP DP  RH WIND       PRES   REMARKS
BAKER          CLEAR     66  55  68 SE17G23   29.92F
BILLINGS       CLEAR     81  63  54 S7        29.86S HI  82
LIVINGSTON     CLEAR     64  45  50 SW3       29.92F
MILES CITY     CLEAR     77  61  58 NE6       29.83S
* LAUREL APT   CLEAR     70  59  68 N/A        N/A
* ROUNDUP APT  CLEAR     72  55  55 N/A        N/A
* ALZADA       N/A       73  64  74 E9         N/A
* HYSHAM       N/A       82  54  38 S2         N/A
* LAME DEER    N/A       79  56  45 SE11G18    N/A
* REED POINT   N/A       64  57  78 N/A        N/A
* ROSCOE HILL  N/A       72  44  37 S4         N/A
$$

REGIONAL REPORTS...DAKOTAS
CITY           SKY/WX    TMP DP  RH WIND       PRES   REMARKS
WILLISTON      MOCLDY    73  57  57 SE12      29.95F
DICKINSON      CLEAR     66  55  68 SE17      29.98F
CROSBY         N/A       64  64 100 E9        30.00F
TIOGA          CLEAR     66  66 100 SE12      30.04F
WATFORD CITY   CLEAR     68  57  68 SE15G24   29.94F
BISMARCK       CLEAR     64  57  78 E10       30.08S
GRAND FORKS    CLEAR     59  57  93 CALM      30.14F
FARGO          CLEAR     63  57  81 E6        30.15S
BUFFALO SD     MOCLDY    72  57  59 E13       29.88F
RAPID CITY     CLOUDY    70  63  79 E10       30.00F
$$

REGIONAL REPORTS...WYOMING/IDAHO/WASHINGTON
CITY           SKY/WX    TMP DP  RH WIND       PRES   REMARKS
GILLETTE       MOCLDY    75  59  58 NE9       29.98F
SHERIDAN       CLEAR     66  55  68 CALM      29.90F
YELLOWSTONE LA CLEAR     48  37  66 NW3       30.26F
SALMON         CLEAR     63  46  54 CALM      29.92R
MULLAN PASS    CLOUDY    45  43  93 N/A       30.14S
SAND POINT     CLOUDY    59  52  78 SW3       30.04S
SPOKANE        MOCLDY    57  48  72 S13G25    30.04S
$$

REGIONAL REPORTS...ALBERTA
CITY           SKY/WX    TMP DP  RH WIND       PRES   REMARKS
CALGARY        MOCLDY    59  54  84 W6        29.85R
LETHBRIDGE     PTCLDY    61  55  81 W6        29.86F
MEDICINE HAT   TSTM      63  59  87 NW18G33   29.80R
EDMONTON       MOCLDY    63  59  87 SE9       29.79F
WATERTON GATE  N/A       57  50  78 S8         N/A
CARDSTON       N/A       57  55  93 W1         N/A
$$

REGIONAL REPORTS...SASKATCHEWAN
CITY           SKY/WX    TMP DP  RH WIND       PRES   REMARKS
SWIFT CURRENT  CLEAR     68  64  87 SE14G21   29.85F
REGINA         FAIR      66  63  90 SE17      29.98F
VAL MARIE      N/A       68  64  87 NE23G36    N/A
ASSINIBOIA     N/A       68  64  87 SE15G23    N/A
CORONACH       N/A       70  63  79 E15G22     N/A

$$




USA.gov is the U.S. government's official web portal to all federal, state and local government web resources and services.